EW2142 Weather Reports


Display with metric or nautical units.
time (UTC)temp
F
wind
direction
speed
MPH
gust
MPH
rain 1hr
in
rain 24hr
in
rain mn
in
humidity
%
barometer
mb
20260502163003 70 252 0.0 3.0 0.00 0.00 0.00 47 1010.1
20260502162524 70 293 0.0 3.0 0.00 0.00 0.00 48 1010.2
20260502162024 70 265 0.0 3.0 0.00 0.00 0.00 49 1010.2
20260502161502 70 254 1.0 4.0 0.00 0.00 0.00 47 1010.2
20260502161003 70 244 1.0 6.0 0.00 0.00 0.00 47 1010.3
20260502160524 70 287 1.0 8.0 0.00 0.00 0.00 46 1010.3
20260502151502 74 250 1.0 4.0 0.00 0.00 0.00 42 1010.8
20260502151003 74 255 1.0 4.0 0.00 0.00 0.00 42 1010.8
20260502150503 73 247 1.0 4.0 0.00 0.00 0.00 44 1010.9
20260502130503 73 292 1.0 3.0 0.00 0.00 0.00 45 1012.3
20260502123503 72 241 1.0 4.0 0.00 0.00 0.00 48 1012.8
20260502123003 71 236 1.0 4.0 0.00 0.00 0.00 50 1012.8
20260502122503 71 232 1.0 4.0 0.00 0.00 0.00 48 1012.9
20260502122003 71 273 1.0 5.0 0.00 0.00 0.00 48 1013.0
20260502121503 71 269 1.0 5.0 0.00 0.00 0.00 49 1013.0
20260502121003 70 279 1.0 5.0 0.00 0.00 0.00 48 1013.1
20260502120502 70 292 1.0 5.0 0.00 0.00 0.00 50 1013.2
20260502115503 70 204 1.0 6.0 0.00 0.00 0.00 50 1013.3
20260502115002 69 214 1.0 6.0 0.00 0.00 0.00 49 1013.4
20260502114003 70 245 1.0 5.0 0.00 0.00 0.00 50 1013.4
20260502113524 70 230 1.0 6.0 0.00 0.00 0.00 50 1013.4
20260502113003 70 227 1.0 6.0 0.00 0.00 0.00 50 1013.5
20260502112503 70 248 1.0 5.0 0.00 0.00 0.00 49 1013.4
20260502112003 71 269 0.0 3.0 0.00 0.00 0.00 50 1013.4
20260502111524 70 273 0.0 4.0 0.00 0.00 0.00 51 1013.5
20260502111002 70 264 0.0 4.0 0.00 0.00 0.00 51 1013.4
20260502110503 69 275 1.0 5.0 0.00 0.00 0.00 51 1013.5
20260502110003 69 276 1.0 5.0 0.00 0.00 0.00 53 1013.5
20260502105502 69 242 0.0 3.0 0.00 0.00 0.00 52 1013.6
20260502105003 69 229 1.0 3.0 0.00 0.00 0.00 52 1013.6
20260502104503 69 249 1.0 2.0 0.00 0.00 0.00 52 1013.6
20260502104024 69 264 0.0 5.0 0.00 0.00 0.00 53 1013.7
20260502103524 69 187 0.0 5.0 0.00 0.00 0.00 53 1013.8
20260502103024 68 273 1.0 5.0 0.00 0.00 0.00 53 1013.8
20260502102524 68 277 1.0 5.0 0.00 0.00 0.00 53 1013.9
20260502102003 69 195 0.0 4.0 0.00 0.00 0.00 52 1013.9
20260502101503 68 259 0.0 2.0 0.00 0.00 0.00 53 1014.0
20260502101023 68 244 0.0 3.0 0.00 0.00 0.00 55 1014.1
20260502100503 67 248 1.0 4.0 0.00 0.00 0.00 55 1014.0
20260502091503 66 252 0.0 2.0 0.00 0.00 0.00 57 1014.6
20260502091023 66 270 0.0 2.0 0.00 0.00 0.00 57 1014.6
20260502090503 66 288 0.0 3.0 0.00 0.00 0.00 58 1014.6
20260502071503 62 250 0.0 1.0 0.00 0.00 0.00 60 1015.0
20260502071003 62 291 0.0 2.0 0.00 0.00 0.00 61 1015.0
20260502070524 61 294 0.0 2.0 0.00 0.00 0.00 62 1015.0
20260502070002 60 292 0.0 3.0 0.00 0.00 0.00 63 1015.1
20260502065503 60 299 0.0 5.0 0.00 0.00 0.00 63 1015.1
20260502065003 60 291 0.0 5.0 0.00 0.00 0.00 63 1015.2
20260502064503 59 146 0.0 2.0 0.00 0.00 0.00 64 1015.3
20260502064003 58 155 0.0 2.0 0.00 0.00 0.00 65 1015.4
20260502063524 57 322 0.0 2.0 0.00 0.00 0.00 65 1015.4
20260502063003 56 353 0.0 2.0 0.00 0.00 0.00 65 1015.3
20260502062503 56 333 0.0 3.0 0.00 0.00 0.00 65 1015.4
20260502062003 55 280 0.0 3.0 0.00 0.00 0.00 64 1015.4
20260502061503 55 195 0.0 2.0 0.00 0.00 0.00 64 1015.5
20260502061024 54 260 0.0 1.0 0.00 0.00 0.00 63 1015.5
20260502060502 54 85 0.0 2.0 0.00 0.00 0.00 62 1015.6
20260502060003 53 32 0.0 2.0 0.00 0.00 0.00 61 1015.6
20260502055503 53 309 0.0 2.0 0.00 0.00 0.00 60 1015.6
20260502055003 52 320 0.0 2.0 0.00 0.00 0.00 58 1015.7
20260502054524 52 30 0.0 1.0 0.00 0.00 0.00 55 1015.7
20260502054003 51 136 0.0 1.0 0.00 0.00 0.00 52 1015.7
20260502053503 51 164 0.0 1.0 0.00 0.00 0.00 49 1015.8
20260502053003 50 236 0.0 1.0 0.00 0.00 0.00 45 1015.9
20260502052524 50 113 0.0 1.0 0.00 0.00 0.00 39 1015.9
20260502052003 49 113 0.0 1.0 0.00 0.00 0.00 32 1016.0
20260502051503 48 0 0.0 0.0 0.00 0.00 0.00 25 1016.0
20260502051003 48 0 0.0 1.0 0.00 0.00 0.00 18 1016.1
20260502050502 48 0 0.0 1.0 0.00 0.00 0.00 11 1016.1
20260502050003 47 0 0.0 0.0 0.00 0.00 0.00 3 1016.1
20260502045503 46 0 0.0 0.0 0.00 0.00 0.00 1 1016.2
20260502045003 46 0 0.0 0.0 0.00 0.00 0.00 1 1016.2
20260502044503 46 0 0.0 0.0 0.00 0.00 0.00 1 1016.2
20260502044003 46 0 0.0 0.0 0.00 0.00 0.00 1 1016.3
20260502043503 45 0 0.0 0.0 0.00 0.00 0.00 1 1016.4
20260502043003 45 0 0.0 0.0 0.00 0.00 0.00 1 1016.5
20260502042503 45 0 0.0 0.0 0.00 0.00 0.00 1 1016.5
20260502042003 45 0 0.0 0.0 0.00 0.00 0.00 1 1016.5
20260502041503 45 0 0.0 0.0 0.00 0.00 0.00 1 1016.6
20260502041024 44 0 0.0 0.0 0.00 0.00 0.00 1 1016.7
20260502040503 44 0 0.0 0.0 0.00 0.00 0.00 1 1016.7
20260502040003 44 0 0.0 0.0 0.00 0.00 0.00 2 1016.7
20260502035502 44 0 0.0 0.0 0.00 0.00 0.00 8 1016.8
20260502035002 44 0 0.0 0.0 0.00 0.00 0.00 11 1016.8
20260502034503 44 0 0.0 0.0 0.00 0.00 0.00 15 1016.8
20260502034003 44 0 0.0 0.0 0.00 0.00 0.00 14 1016.9
20260502033503 44 0 0.0 0.0 0.00 0.00 0.00 13 1017.0
20260502033024 44 0 0.0 0.0 0.00 0.00 0.00 10 1017.1
20260502032503 44 0 0.0 0.0 0.00 0.00 0.00 6 1017.2
20260502032003 44 0 0.0 0.0 0.00 0.00 0.00 3 1017.3
20260502031524 43 0 0.0 0.0 0.00 0.00 0.00 19 1017.4
20260502031003 43 0 0.0 0.0 0.00 0.00 0.00 23 1017.5
20260502030503 43 0 0.0 0.0 0.00 0.00 0.00 24 1017.6
20260502030002 43 0 0.0 0.0 0.00 0.00 0.00 27 1017.6
20260502025503 43 0 0.0 0.0 0.00 0.00 0.00 28 1017.7
20260502025024 43 0 0.0 0.0 0.00 0.00 0.00 27 1017.8
20260502024503 43 0 0.0 0.0 0.00 0.00 0.00 30 1017.8
20260502024003 43 0 0.0 0.0 0.00 0.00 0.00 37 1017.9
20260502023503 44 0 0.0 0.0 0.00 0.00 0.00 37 1017.9
20260502023003 44 298 0.0 1.0 0.00 0.00 0.00 35 1018.0
20260502022503 44 298 0.0 1.0 0.00 0.00 0.00 40 1018.0
20260502022003 44 0 0.0 0.0 0.00 0.00 0.00 44 1018.1
20260502021503 44 0 0.0 0.0 0.00 0.00 0.00 46 1018.2
20260502021024 44 0 0.0 0.0 0.00 0.00 0.00 47 1018.2
20260502020503 44 0 0.0 0.0 0.00 0.00 0.00 46 1018.2
20260502020003 44 0 0.0 0.0 0.00 0.00 0.00 44 1018.4
20260502015503 44 0 0.0 0.0 0.00 0.00 0.00 44 1018.5
20260502015002 44 0 0.0 0.0 0.00 0.00 0.00 46 1018.5
20260502014503 44 0 0.0 0.0 0.00 0.00 0.00 45 1018.6
20260502014024 44 0 0.0 0.0 0.00 0.00 0.00 47 1018.6
20260502013503 44 0 0.0 0.0 0.00 0.00 0.00 51 1018.7
20260502013003 44 0 0.0 0.0 0.00 0.00 0.00 54 1018.8
20260502012524 44 0 0.0 0.0 0.00 0.00 0.00 54 1018.9
20260502012003 44 0 0.0 0.0 0.00 0.00 0.00 55 1019.0
20260502011503 44 0 0.0 0.0 0.00 0.00 0.00 57 1019.0
20260502011003 45 0 0.0 0.0 0.00 0.00 0.00 58 1019.1
20260502010503 45 0 0.0 0.0 0.00 0.00 0.00 60 1019.1
20260502010002 45 0 0.0 0.0 0.00 0.00 0.00 60 1019.2
20260502005524 45 0 0.0 0.0 0.00 0.00 0.00 60 1019.3
20260502005002 45 0 0.0 0.0 0.00 0.00 0.00 61 1019.4
20260502004503 45 0 0.0 0.0 0.00 0.00 0.00 62 1019.4
20260502004003 46 0 0.0 0.0 0.00 0.00 0.00 61 1019.5
20260502003503 45 0 0.0 0.0 0.00 0.00 0.00 63 1019.6
20260502003003 46 0 0.0 0.0 0.00 0.00 0.00 64 1019.6
20260502002503 46 0 0.0 0.0 0.00 0.00 0.00 64 1019.7
20260502002003 45 0 0.0 0.0 0.00 0.00 0.00 65 1019.7
20260502001524 45 0 0.0 0.0 0.00 0.00 0.00 66 1019.7
20260502001003 46 0 0.0 0.0 0.00 0.00 0.00 66 1019.8
20260502000503 46 0 0.0 0.0 0.00 0.00 0.00 66 1019.8
20260502000003 45 0 0.0 0.0 0.00 0.00 0.00 66 1019.8
20260501235503 45 0 0.0 0.0 0.00 0.00 0.00 68 1019.9
20260501235003 46 0 0.0 0.0 0.00 0.00 0.00 68 1019.9
20260501234503 46 0 0.0 0.0 0.00 0.00 0.00 68 1019.9
20260501234003 45 0 0.0 0.0 0.00 0.00 0.00 68 1020.0
20260501233502 46 0 0.0 0.0 0.00 0.00 0.00 68 1020.0
20260501233003 46 0 0.0 0.0 0.00 0.00 0.00 69 1020.1
20260501232503 46 0 0.0 0.0 0.00 0.00 0.00 69 1020.2
20260501232003 46 0 0.0 0.0 0.00 0.00 0.00 69 1020.2
20260501231503 46 0 0.0 0.0 0.00 0.00 0.00 69 1020.3
20260501231003 46 0 0.0 0.0 0.00 0.00 0.00 69 1020.3
20260501230503 46 0 0.0 0.0 0.00 0.00 0.00 69 1020.4
20260501230002 47 0 0.0 0.0 0.00 0.00 0.00 69 1020.4
20260501225524 47 0 0.0 0.0 0.00 0.00 0.00 69 1020.5
20260501225002 47 0 0.0 0.0 0.00 0.00 0.00 69 1020.6
20260501224524 47 305 0.0 1.0 0.00 0.00 0.00 69 1020.6
20260501224024 47 305 0.0 1.0 0.00 0.00 0.00 69 1020.6
20260501223503 46 0 0.0 0.0 0.00 0.00 0.00 70 1020.6
20260501223003 46 0 0.0 0.0 0.00 0.00 0.00 70 1020.5
20260501222503 46 0 0.0 0.0 0.00 0.00 0.00 70 1020.6
20260501222003 46 0 0.0 0.0 0.00 0.00 0.00 70 1020.6
20260501221503 47 0 0.0 0.0 0.00 0.00 0.00 70 1020.6
20260501221003 47 0 0.0 0.0 0.00 0.00 0.00 70 1020.6
20260501220503 47 0 0.0 0.0 0.00 0.00 0.00 70 1020.7
20260501215503 48 0 0.0 0.0 0.00 0.00 0.00 70 1020.7
20260501215002 48 0 0.0 0.0 0.00 0.00 0.00 70 1020.8
20260501214503 48 0 0.0 0.0 0.00 0.00 0.00 70 1020.8
20260501214003 48 0 0.0 0.0 0.00 0.00 0.00 70 1020.9
20260501213503 48 0 0.0 0.0 0.00 0.00 0.00 70 1021.0
20260501213003 48 0 0.0 0.0 0.00 0.00 0.00 70 1021.0
20260501212524 48 0 0.0 0.0 0.00 0.00 0.00 70 1021.0
20260501212003 48 0 0.0 0.0 0.00 0.00 0.00 69 1021.0
20260501211503 48 0 0.0 0.0 0.00 0.00 0.00 69 1021.1
20260501211003 49 0 0.0 0.0 0.00 0.00 0.00 69 1021.1
20260501210503 49 0 0.0 0.0 0.00 0.00 0.00 69 1021.1
20260501210003 49 0 0.0 0.0 0.00 0.00 0.00 69 1021.2
20260501205524 49 0 0.0 0.0 0.00 0.00 0.00 69 1021.3
20260501205003 50 0 0.0 0.0 0.00 0.00 0.00 68 1021.3
20260501204524 50 0 0.0 0.0 0.00 0.00 0.00 68 1021.3
20260501204003 50 0 0.0 0.0 0.00 0.00 0.00 67 1021.4
20260501203503 51 0 0.0 0.0 0.00 0.00 0.00 67 1021.4
20260501203024 51 0 0.0 0.0 0.00 0.00 0.00 66 1021.5
20260501202524 51 0 0.0 0.0 0.00 0.00 0.00 66 1021.6
20260501202003 51 0 0.0 0.0 0.00 0.00 0.00 65 1021.6
20260501201503 52 0 0.0 0.0 0.00 0.00 0.00 65 1021.7
20260501201003 52 0 0.0 0.0 0.00 0.00 0.00 65 1021.7
20260501200503 52 0 0.0 0.0 0.00 0.00 0.00 64 1021.8
20260501200003 53 0 0.0 0.0 0.00 0.00 0.00 64 1021.8
20260501195503 53 0 0.0 0.0 0.00 0.00 0.00 63 1021.9
20260501195003 53 0 0.0 0.0 0.00 0.00 0.00 62 1021.9
20260501194503 54 0 0.0 0.0 0.00 0.00 0.00 61 1021.9
20260501194003 54 0 0.0 0.0 0.00 0.00 0.00 60 1022.0
20260501193503 54 0 0.0 0.0 0.00 0.00 0.00 60 1022.0
20260501193003 54 0 0.0 0.0 0.00 0.00 0.00 59 1022.0
20260501192524 55 0 0.0 0.0 0.00 0.00 0.00 60 1022.1
20260501192003 55 0 0.0 0.0 0.00 0.00 0.00 58 1022.2
20260501191503 55 0 0.0 0.0 0.00 0.00 0.00 59 1022.2
20260501191024 56 0 0.0 0.0 0.00 0.00 0.00 58 1022.2
20260501190503 56 159 0.0 2.0 0.00 0.00 0.00 56 1022.2
20260501190024 56 226 0.0 2.0 0.00 0.00 0.00 56 1022.3
20260501185503 57 259 0.0 2.0 0.00 0.00 0.00 55 1022.2
20260501185002 57 180 0.0 1.0 0.00 0.00 0.00 55 1022.2
20260501184503 58 281 0.0 1.0 0.00 0.00 0.00 53 1022.2
20260501184023 58 0 0.0 0.0 0.00 0.00 0.00 53 1022.3
20260501183503 59 298 0.0 1.0 0.00 0.00 0.00 51 1022.3
20260501183003 59 298 0.0 1.0 0.00 0.00 0.00 50 1022.3
20260501182503 60 0 0.0 0.0 0.00 0.00 0.00 50 1022.3
20260501182003 60 298 0.0 1.0 0.00 0.00 0.00 48 1022.4
20260501181503 61 298 0.0 1.0 0.00 0.00 0.00 47 1022.5
20260501181024 62 298 0.0 1.0 0.00 0.00 0.00 46 1022.5
20260501180503 62 298 0.0 1.0 0.00 0.00 0.00 45 1022.5
20260501180002 63 298 0.0 1.0 0.00 0.00 0.00 44 1022.5
20260501175502 64 298 0.0 1.0 0.00 0.00 0.00 43 1022.5
20260501175024 64 304 0.0 1.0 0.00 0.00 0.00 42 1022.6
20260501174524 65 308 0.0 2.0 0.00 0.00 0.00 40 1022.5
20260501174002 66 301 0.0 2.0 0.00 0.00 0.00 40 1022.7
20260501173503 67 314 0.0 3.0 0.00 0.00 0.00 39 1022.7
20260501173003 66 329 0.0 3.0 0.00 0.00 0.00 40 1022.7
20260501172503 67 312 0.0 3.0 0.00 0.00 0.00 38 1022.8
20260501172003 68 305 0.0 3.0 0.00 0.00 0.00 37 1022.8
20260501171503 69 280 0.0 1.0 0.00 0.00 0.00 36 1022.8
20260501171003 70 229 0.0 1.0 0.00 0.00 0.00 36 1022.9
20260501170503 69 317 0.0 1.0 0.00 0.00 0.00 37 1023.1
20260501170004 68 300 0.0 2.0 0.00 0.00 0.00 38 1023.1
20260501165502 68 291 0.0 2.0 0.00 0.00 0.00 38 1023.2
20260501165002 67 308 0.0 3.0 0.00 0.00 0.00 39 1023.2
20260501164503 66 308 1.0 4.0 0.00 0.00 0.00 39 1023.2
20260501164003 67 307 1.0 4.0 0.00 0.00 0.00 38 1023.3
20260501163503 67 309 1.0 4.0 0.00 0.00 0.00 39 1023.3